Regional Weather Roundup
Issued by NWS

Home | Current Version | Previous Version | Graphics & Text | Print | Product List | Glossary On
Versions: 1 2 3 4 5 6 7 8 9 10 11 12 13 14 15 16 17 18 19 20 21 22 23 24 25 26 27 28 29 30 31 32 33 34 35 36 37 38 39 40 41 42 43 44 45 46 47 48 49 50
000
ASUS43 KBIS 210510
RWRND

NORTH DAKOTA REGIONAL WEATHER ROUNDUP
NATIONAL WEATHER SERVICE BISMARCK ND
1200 AM CDT MON AUG 21 2017

NOTE: "FAIR" INDICATES FEW OR NO CLOUDS BELOW 12,000 FEET WITH NO
SIGNIFICANT WEATHER AND/OR OBSTRUCTIONS TO VISIBILITY.


NDZ001>003-009>011-017-210600-
NORTHWEST NORTH DAKOTA

CITY           SKY/WX    TMP DP  RH WIND       PRES   REMARKS
WILLISTON      CLOUDY    66  46  48 S5        29.97F
MINOT          PTCLDY    65  50  58 S5        30.00S
MINOT AFB      CLOUDY    61  48  64 S7        29.98F
$$

NDZ018>021-031>035-040>046-210600-
SOUTHWEST NORTH DAKOTA

CITY           SKY/WX    TMP DP  RH WIND       PRES   REMARKS
BISMARCK       CLOUDY    58  54  86 S5        30.05S
DICKINSON      CLOUDY    56  46  69 SE12      30.00F
GARRISON         N/A     61  51  70 S8        30.02S
HETTINGER ARPT CLOUDY    58  46  64 E13       30.02F
$$

NDZ004>008-012>016-024-026-027-054-210600-
NORTHEAST NORTH DAKOTA

CITY           SKY/WX    TMP DP  RH WIND       PRES   REMARKS
GRAND FORKS    PTCLDY    55  51  86 SW3       30.02R
GRND FRKS AFB  PTCLDY    51  48  90 CALM      30.02S
DEVILS LAKE    CLOUDY    58  49  72 CALM      30.04S
$$

NDZ022-023-025-028>030-036>039-047>053-210600-
SOUTHEAST NORTH DAKOTA

CITY           SKY/WX    TMP DP  RH WIND       PRES   REMARKS
FARGO          PTCLDY    62  54  74 SW3       30.03S
JAMESTOWN      MOCLDY    61  54  77 S7        30.04S
$$





USA.gov is the U.S. government's official web portal to all federal, state and local government web resources and services.